Total_Precipitation_Accumulation
0.00 0.03 0.20 0.17 0.14 0.10 0.09 0.11 0.14 0.13 0.12 0.14 0.09 0.06 0.07 0.13 0.15 0.16 0.07 0.07 0.16 0.19 0.23 0.17 0.17 0.26 0.37 0.41 0.35 0.09 0.05 0.03 0.02 0.01 0.02 0.05 0.08 0.07 0.07 0.07 0.09 0.09 0.11
0.00 0.03 0.14 0.19 0.17 0.14 0.16 0.15 0.13 0.09 0.15 0.18 0.15 0.12 0.13 0.24 0.20 0.11 0.06 0.09 0.16 0.17 0.15 0.21 0.29 0.36 0.32 0.15 0.08 0.03 0.01 0.00 0.00 0.00 0.00 0.02 0.06 0.09 0.08 0.07 0.13 0.11 0.13
0.00 0.05 0.07 0.20 0.17 0.15 0.13 0.08 0.08 0.12 0.11 0.12 0.17 0.20 0.29 0.26 0.11 0.05 0.05 0.13 0.16 0.16 0.19 0.25 0.25 0.15 0.03 0.01 0.00 0.00 0.00 0.00 0.00 0.00 0.01 0.08 0.11 0.17 0.13 0.13 0.26 0.27 0.27
0.01 0.06 0.06 0.22 0.16 0.14 0.09 0.05 0.08 0.11 0.09 0.10 0.22 0.33 0.33 0.18 0.06 0.06 0.10 0.19 0.19 0.09 0.10 0.07 0.03 0.01 0.00 0.00 0.00 0.00 0.00 0.00 0.00 0.00 0.00 0.01 0.03 0.12 0.13 0.12 0.16 0.14 0.13
0.03 0.06 0.07 0.20 0.24 0.14 0.05 0.05 0.07 0.07 0.08 0.10 0.22 0.47 0.46 0.16 0.07 0.09 0.17 0.31 0.11 0.03 0.02 0.01 0.01 0.00 0.00 0.00 0.00 0.00 0.01 0.00 0.00 0.00 0.00 0.00 0.02 0.09 0.11 0.12 0.14 0.17 0.16
0.05 0.11 0.17 0.30 0.37 0.15 0.05 0.04 0.07 0.07 0.07 0.09 0.25 0.43 0.44 0.15 0.14 0.18 0.22 0.15 0.03 0.02 0.02 0.01 0.00 0.00 0.00 0.00 0.00 0.00 0.01 0.01 0.00 0.00 0.00 0.01 0.04 0.13 0.09 0.10 0.14 0.23 0.23
0.08 0.13 0.22 0.40 0.38 0.20 0.08 0.09 0.14 0.10 0.11 0.11 0.27 0.39 0.36 0.16 0.16 0.23 0.17 0.05 0.02 0.02 0.02 0.00 0.00 0.00 0.00 0.00 0.00 0.00 0.00 0.01 0.00 0.00 0.00 0.00 0.02 0.03 0.02 0.04 0.05 0.08 0.12
0.11 0.16 0.30 0.40 0.37 0.33 0.24 0.16 0.15 0.11 0.13 0.20 0.34 0.46 0.33 0.22 0.26 0.19 0.13 0.05 0.04 0.02 0.01 0.01 0.00 0.00 0.00 0.00 0.00 0.00 0.00 0.00 0.00 0.00 0.00 0.00 0.01 0.02 0.02 0.03 0.04 0.04 0.06
0.42 0.40 0.48 0.42 0.31 0.26 0.32 0.27 0.22 0.18 0.19 0.31 0.40 0.39 0.21 0.25 0.41 0.29 0.11 0.06 0.05 0.03 0.02 0.01 0.01 0.01 0.00 0.00 0.00 0.00 0.00 0.00 0.00 0.00 0.00 0.00 0.02 0.05 0.05 0.07 0.07 0.08 0.10
1.02 0.71 0.52 0.45 0.25 0.16 0.17 0.17 0.19 0.18 0.19 0.27 0.28 0.19 0.11 0.08 0.14 0.45 0.44 0.07 0.08 0.04 0.02 0.02 0.02 0.02 0.01 0.01 0.01 0.01 0.00 0.00 0.00 0.00 0.00 0.00 0.05 0.08 0.08 0.09 0.08 0.09 0.11
1.68 1.59 1.02 0.61 0.27 0.12 0.14 0.16 0.15 0.20 0.30 0.30 0.22 0.16 0.07 0.04 0.04 0.11 0.24 0.14 0.04 0.03 0.02 0.03 0.02 0.02 0.01 0.00 0.00 0.00 0.00 0.00 0.00 0.00 0.00 0.01 0.03 0.04 0.05 0.05 0.05 0.08 0.08
1.90 1.63 1.80 1.49 0.81 0.37 0.21 0.13 0.07 0.12 0.19 0.15 0.14 0.13 0.06 0.03 0.03 0.05 0.09 0.18 0.04 0.02 0.03 0.01 0.01 0.01 0.00 0.00 0.00 0.00 0.00 0.00 0.00 0.00 0.00 0.01 0.02 0.02 0.02 0.04 0.05 0.04 0.04
2.63 1.67 1.70 1.49 1.27 0.65 0.52 0.39 0.10 0.03 0.09 0.11 0.12 0.11 0.06 0.03 0.02 0.05 0.14 0.13 0.04 0.00 0.01 0.00 0.00 0.00 0.00 0.00 0.00 0.00 0.00 0.00 0.00 0.00 0.00 0.01 0.00 0.01 0.02 0.02 0.03 0.02 0.02
3.11 2.19 1.53 1.25 1.14 0.97 0.81 0.56 0.26 0.18 0.08 0.09 0.08 0.10 0.06 0.03 0.02 0.02 0.06 0.09 0.08 0.02 0.00 0.00 0.00 0.00 0.00 0.00 0.00 0.00 0.00 0.00 0.00 0.00 0.00 0.00 0.00 0.00 0.01 0.01 0.02 0.03 0.04
1.45 1.66 1.79 1.29 1.03 0.91 0.87 0.72 0.27 0.16 0.13 0.08 0.08 0.10 0.07 0.03 0.02 0.01 0.01 0.02 0.05 0.02 0.00 0.00 0.00 0.00 0.00 0.00 0.00 0.00 0.00 0.00 0.00 0.00 0.00 0.00 0.00 0.00 0.00 0.00 0.01 0.01 0.05
0.93 1.30 1.77 1.54 1.08 1.33 1.15 0.90 0.67 0.26 0.20 0.18 0.20 0.12 0.16 0.09 0.04 0.03 0.02 0.01 0.01 0.01 0.00 0.00 0.00 0.00 0.00 0.00 0.00 0.00 0.00 0.00 0.00 0.00 0.00 0.00 0.00 0.00 0.00 0.00 0.02 0.07 0.12
0.53 1.41 1.87 1.46 0.97 0.82 1.43 1.28 0.71 0.60 0.36 0.23 0.27 0.42 0.27 0.33 0.20 0.11 0.09 0.07 0.06 0.04 0.02 0.00 0.00 0.00 0.00 0.00 0.00 0.00 0.00 0.00 0.00 0.00 0.00 0.00 0.00 0.00 0.00 0.01 0.02 0.06 0.09
0.58 0.95 1.57 1.41 0.78 0.62 0.86 1.44 1.15 0.71 0.43 0.27 0.20 0.26 0.33 0.35 0.56 0.35 0.22 0.13 0.10 0.11 0.10 0.05 0.01 0.00 0.00 0.00 0.00 0.00 0.00 0.00 0.00 0.00 0.00 0.00 0.00 0.00 0.00 0.00 0.01 0.03 0.09
0.47 0.63 0.79 0.77 0.41 0.20 0.36 0.96 1.41 0.95 0.49 0.29 0.22 0.10 0.20 0.31 0.38 0.70 0.61 0.39 0.21 0.18 0.15 0.10 0.04 0.00 0.00 0.00 0.01 0.00 0.00 0.00 0.00 0.00 0.00 0.01 0.01 0.01 0.00 0.01 0.01 0.01 0.02
0.84 0.66 0.67 0.50 0.50 0.32 0.55 0.88 1.23 1.12 0.75 0.37 0.27 0.16 0.12 0.14 0.24 0.33 0.47 0.53 0.48 0.36 0.21 0.14 0.11 0.05 0.02 0.03 0.03 0.01 0.00 0.00 0.00 0.00 0.00 0.00 0.02 0.02 0.01 0.01 0.00 0.00 0.00
1.62 0.98 0.83 0.66 0.53 0.52 0.44 0.56 0.82 0.62 0.97 0.68 0.48 0.41 0.31 0.39 0.38 0.41 0.47 0.31 0.25 0.19 0.20 0.19 0.16 0.09 0.05 0.16 0.14 0.03 0.01 0.00 0.00 0.00 0.00 0.00 0.00 0.01 0.00 0.00 0.00 0.00 0.00
1.05 1.07 1.06 0.56 0.42 0.44 0.42 0.47 1.00 1.04 1.05 0.96 0.97 0.82 0.60 0.63 0.59 0.40 0.46 0.56 0.41 0.25 0.17 0.15 0.25 0.39 0.38 0.49 0.40 0.22 0.08 0.05 0.05 0.02 0.01 0.00 0.00 0.00 0.00 0.00 0.00 0.00 0.00
1.00 0.80 0.85 1.09 0.95 0.84 1.06 1.45 1.48 1.68 1.68 1.62 1.49 1.16 1.20 1.37 1.44 1.17 1.08 0.97 1.00 1.07 0.93 0.92 0.80 0.89 0.80 0.79 0.64 0.62 0.36 0.13 0.04 0.02 0.01 0.00 0.00 0.00 0.01 0.02 0.04 0.05 0.04
1.36 1.38 1.39 1.53 1.34 1.04 1.28 1.47 1.16 1.48 1.71 1.72 1.49 1.64 1.90 1.98 2.03 1.89 1.85 2.23 2.06 1.75 1.63 1.62 1.43 1.08 0.80 0.67 0.57 0.45 0.38 0.24 0.19 0.10 0.03 0.04 0.04 0.05 0.05 0.04 0.04 0.05 0.05
1.67 1.56 1.62 1.82 1.46 1.19 1.31 1.37 1.52 1.35 1.51 1.56 1.24 1.18 1.25 1.34 1.20 1.22 1.20 1.36 1.58 1.45 1.41 1.30 1.25 1.07 0.93 0.73 0.59 0.48 0.43 0.34 0.23 0.20 0.10 0.07 0.08 0.05 0.05 0.04 0.04 0.03 0.04
1.62 1.12 1.30 1.41 1.20 1.04 1.12 1.07 1.40 1.16 1.29 1.47 1.43 1.14 1.01 0.95 1.08 0.88 0.77 0.70 0.69 0.68 0.71 0.70 0.69 0.64 0.55 0.51 0.43 0.39 0.37 0.37 0.28 0.27 0.24 0.15 0.15 0.09 0.06 0.06 0.08 0.10 0.11